Location: Nitra
(0.0000°N, 18.0833°E)
Time: 22:12:30
(UTC+02:00)

CZ-4C R/B - Visible Passes

Search period start: 30 March 2023 00:00
Search period end: 09 April 2023 00:00
Orbit: 561 x 1438 km, 63.4° (Epoch: 30 March)

Date Brightness Start Highest point End Pass type
(mag) Time Alt. Az. Time Alt. Az. Time Alt. Az.
02 Apr 5.3 21:45:39 10° N 21:46:18 13° N 21:46:18 13° N visible
03 Apr 5.0 20:33:24 10° NNE 20:34:03 11° NE 20:34:03 11° NE visible
03 Apr 5.3 22:18:17 10° NNW 22:19:16 14° NNW 22:19:16 14° NNW visible
04 Apr 4.5 21:03:34 10° N 21:07:07 25° NNE 21:07:07 25° NNE visible
05 Apr 4.8 19:52:51 10° NE 19:55:06 12° ENE 19:55:06 12° ENE visible
05 Apr 4.3 21:35:49 10° NNW 21:40:19 36° NNW 21:40:19 36° NNW visible
06 Apr 4.0 20:21:38 10° N 20:28:26 32° ENE 20:28:26 32° ENE visible
06 Apr 4.7 22:09:27 10° NW 22:13:41 29° WNW 22:13:41 29° WNW visible
07 Apr 3.1 20:53:26 10° NNW 21:01:56 71° NE 21:01:56 71° NE visible
07 Apr 5.5 22:45:13 10° WNW 22:47:11 14° W 22:47:11 14° W visible
08 Apr 4.2 19:39:50 10° NNE 19:46:38 25° ENE 19:50:17 19° E visible
08 Apr 3.7 21:26:39 10° NW 21:35:11 54° WSW 21:35:33 54° WSW visible
